DW7146 Weather Reports


time (UTC)temp
C
wind
direction
speed
KPH
gust
KPH
rain 1hr
cm
rain 24hr
cm
rain mn
cm
humidity
%
barometer
mb
20260510072525 10 0 0.0 0.0 0.00 0.25 0.00 97 1004.5
20260510072003 10 0 0.0 0.0 0.00 0.25 0.00 97 1004.6
20260510071505 10 0 0.0 0.0 0.00 0.25 0.00 97 1004.5
20260510071004 10 0 0.0 0.0 0.00 0.25 0.00 97 1004.4
20260510070505 10 0 0.0 0.0 0.00 0.25 0.00 97 1004.3
20260510070004 10 0 0.0 0.0 0.00 0.25 0.00 97 1004.4
20260510065504 10 0 0.0 0.0 0.00 0.25 0.00 97 1004.3
20260510065004 10 0 0.0 0.0 0.00 0.25 0.00 97 1004.2
20260510064503 10 0 0.0 0.0 0.00 0.25 0.00 97 1004.3
20260510064004 10 0 0.0 0.0 0.00 0.25 0.00 96 1004.4
20260510063504 10 0 0.0 0.0 0.00 0.25 0.00 96 1004.2
20260510063004 10 0 0.0 0.0 0.00 0.25 0.00 95 1003.8
20260510062504 10 0 0.0 0.0 0.00 0.25 0.00 95 1004.0
20260510062024 10 0 0.0 0.0 0.00 0.25 0.00 95 1003.9
20260510061504 10 0 0.0 0.0 0.00 0.25 0.00 95 1003.8
20260510061004 10 0 0.0 0.0 0.00 0.25 0.00 95 1003.9
20260510060503 10 0 0.0 0.0 0.00 0.25 0.00 94 1003.9
20260510060004 10 0 0.0 0.0 0.00 0.25 0.00 94 1003.7
20260510055504 10 0 0.0 0.0 0.00 0.25 0.00 94 1003.8
20260510055004 10 0 0.0 0.0 0.00 0.25 0.00 94 1003.8
20260510054504 11 0 0.0 0.0 0.00 0.25 0.00 94 1003.7
20260510054004 11 0 0.0 0.0 0.00 0.25 0.00 94 1003.8
20260510053505 11 0 0.0 0.0 0.00 0.25 0.00 93 1003.6
20260510053003 11 0 0.0 0.0 0.00 0.25 0.00 93 1003.7
20260510052504 11 0 0.0 0.0 0.00 0.25 0.00 93 1003.6
20260510052004 11 0 0.0 0.0 0.00 0.25 0.00 92 1003.6
20260510051504 11 0 0.0 0.0 0.00 0.25 0.00 92 1003.5
20260510051004 11 0 0.0 0.0 0.00 0.25 0.00 92 1003.5
20260510050504 11 0 0.0 0.0 0.00 0.25 0.00 92 1003.4
20260510050008 11 0 0.0 0.0 0.00 0.25 0.00 92 1003.3
20260510045508 11 0 0.0 0.0 0.00 0.25 0.00 91 1003.3
20260510045008 11 0 0.0 0.0 0.00 0.25 0.00 91 1003.3
20260510044530 11 0 0.0 0.0 0.00 0.25 0.00 91 1003.2
20260510044007 11 0 0.0 0.0 0.00 0.25 0.00 91 1003.1
20260510043508 11 0 0.0 0.0 0.00 0.25 0.00 90 1003.0
20260510043007 11 0 0.0 0.0 0.00 0.25 0.00 90 1002.8
20260510042508 11 0 0.0 0.0 0.00 0.25 0.00 90 1002.8
20260510042008 11 0 0.0 0.0 0.00 0.25 0.00 90 1002.6
20260510041508 11 0 0.0 0.0 0.00 0.25 0.00 90 1002.5
20260510041007 11 0 0.0 0.0 0.00 0.25 0.00 90 1002.5
20260510040508 11 0 0.0 0.0 0.00 0.25 0.00 89 1002.6
20260510040010 11 0 0.0 0.0 0.00 0.25 0.00 89 1002.4
20260510035508 12 0 0.0 0.0 0.00 0.25 0.25 88 1002.0
20260510035007 12 0 0.0 0.0 0.00 0.25 0.25 88 1002.4
20260510034508 12 0 0.0 0.0 0.00 0.25 0.25 87 1002.4
20260510034007 12 0 0.0 0.0 0.00 0.25 0.25 87 1002.5
20260510033507 12 0 0.0 0.0 0.05 0.25 0.25 87 1002.4
20260510033029 12 0 0.0 0.0 0.05 0.25 0.25 86 1002.6
20260510032529 12 0 0.0 0.0 0.08 0.25 0.25 86 1002.6
20260510032008 12 0 0.0 0.0 0.13 0.25 0.25 85 1002.5
20260510031507 12 0 0.0 0.0 0.18 0.25 0.25 84 1002.6
20260510031008 12 0 0.0 0.0 0.18 0.25 0.25 84 1002.6
20260510030507 12 0 0.0 0.0 0.25 0.25 0.25 83 1002.6
20260510030008 12 0 0.0 0.0 0.25 0.25 0.25 82 1002.4
20260510025507 12 0 0.0 0.0 0.25 0.25 0.25 80 1002.5
20260510025008 12 0 0.0 0.0 0.25 0.25 0.25 79 1002.4
20260510024508 12 0 0.0 0.0 0.25 0.25 0.25 78 1002.2
20260510024008 12 0 0.0 0.0 0.25 0.25 0.25 75 1002.3
20260510023508 12 0 0.0 0.0 0.20 0.20 0.20 73 1002.4
20260510023008 12 0 0.0 0.0 0.20 0.20 0.20 70 1002.3
20260510022507 13 0 0.0 0.0 0.18 0.18 0.18 66 1002.4
20260510022007 13 0 0.0 0.0 0.13 0.13 0.13 64 1002.4
20260510021529 13 0 0.0 0.0 0.08 0.08 0.08 61 1002.1
20260510021008 14 0 0.0 0.0 0.08 0.08 0.08 57 1002.0
20260510020508 14 0 0.0 0.0 0.00 0.00 0.00 54 1001.9
20260510020008 15 0 0.0 0.0 0.00 0.00 0.00 52 1001.7
20260510015508 15 0 0.0 0.0 0.00 0.00 0.00 50 1001.7
20260510015030 15 0 0.0 0.0 0.00 0.00 0.00 49 1001.7
20260510014508 15 0 0.0 0.0 0.00 0.00 0.00 48 1001.6
20260510014008 15 0 0.0 0.0 0.00 0.00 0.00 46 1001.7
20260510013507 15 0 0.0 0.0 0.00 0.00 0.00 46 1001.7
20260510013007 15 0 0.0 0.0 0.00 0.00 0.00 44 1002.0
20260510012509 15 0 0.0 0.0 0.00 0.00 0.00 43 1002.0
20260510012007 15 0 0.0 0.0 0.00 0.00 0.00 43 1002.0
20260510011507 15 0 0.0 0.0 0.00 0.00 0.00 41 1002.0
20260510011008 15 0 0.0 0.0 0.00 0.00 0.00 40 1001.8
20260510010507 15 0 0.0 0.0 0.00 0.00 0.00 39 1001.9
20260510010029 15 0 0.0 0.0 0.00 0.00 0.00 38 1002.0
20260510005507 15 0 0.0 0.0 0.00 0.00 0.00 37 1002.0
20260510005008 15 0 0.0 0.0 0.00 0.00 0.00 37 1001.9
20260510004528 15 0 0.0 0.0 0.00 0.00 0.00 36 1001.9
20260510004008 16 225 0.0 1.6 0.00 0.00 0.00 35 1002.0
20260510003528 16 0 0.0 0.0 0.00 0.00 0.00 35 1002.0
20260510003007 16 0 0.0 0.0 0.00 0.00 0.00 34 1002.0
20260510002507 16 0 0.0 0.0 0.00 0.00 0.00 34 1002.0
20260510002007 16 0 0.0 0.0 0.00 0.00 0.00 33 1002.1
20260510001509 16 0 0.0 0.0 0.00 0.00 0.00 33 1002.2
20260510001008 16 0 0.0 0.0 0.00 0.00 0.00 33 1002.1
20260510000507 16 0 0.0 0.0 0.00 0.00 0.00 32 1002.3
20260510000028 16 0 0.0 0.0 0.00 0.00 0.00 31 1002.2
20260509235507 16 0 0.0 0.0 0.00 0.00 0.00 29 1002.5
20260509235007 16 0 0.0 0.0 0.00 0.00 0.00 28 1002.5
20260509234508 16 0 0.0 0.0 0.00 0.00 0.00 27 1002.5
20260509234029 16 0 0.0 0.0 0.00 0.00 0.00 26 1002.7
20260509233528 16 0 0.0 0.0 0.00 0.00 0.00 25 1002.8
20260509233008 16 225 0.0 1.6 0.00 0.00 0.00 26 1002.8
20260509232508 16 0 0.0 0.0 0.00 0.00 0.00 26 1002.9
20260509232008 17 0 0.0 0.0 0.00 0.00 0.00 27 1002.9
20260509231508 17 0 0.0 0.0 0.00 0.00 0.00 29 1002.9
20260509231028 17 0 0.0 0.0 0.00 0.00 0.00 30 1003.0
20260509230529 17 0 0.0 0.0 0.00 0.00 0.00 30 1003.0
20260509230029 17 0 0.0 0.0 0.00 0.00 0.00 29 1003.0
20260509225509 17 225 0.0 1.6 0.00 0.00 0.00 27 1003.1
20260509225007 17 0 0.0 0.0 0.00 0.00 0.00 29 1002.9
20260509224508 17 0 0.0 0.0 0.00 0.00 0.00 28 1002.8
20260509224007 17 0 0.0 0.0 0.00 0.00 0.00 27 1002.7
20260509223508 17 0 0.0 0.0 0.00 0.00 0.00 26 1002.7
20260509223007 17 0 0.0 0.0 0.00 0.00 0.00 26 1002.6
20260509222507 17 0 0.0 0.0 0.00 0.00 0.00 26 1002.6
20260509222007 17 0 0.0 0.0 0.00 0.00 0.00 25 1002.4
20260509221507 18 0 0.0 0.0 0.00 0.00 0.00 24 1002.5
20260509221007 18 0 0.0 0.0 0.00 0.00 0.00 24 1002.5
20260509220507 18 0 0.0 0.0 0.00 0.00 0.00 24 1002.5
20260509220008 18 0 0.0 0.0 0.00 0.00 0.00 23 1002.4
20260509215507 18 0 0.0 0.0 0.00 0.00 0.00 22 1002.3
20260509215007 18 0 0.0 0.0 0.00 0.00 0.00 23 1002.3
20260509214529 18 0 0.0 0.0 0.00 0.00 0.00 21 1002.3
20260509214007 18 0 0.0 0.0 0.00 0.00 0.00 20 1002.5
20260509213507 18 0 0.0 0.0 0.00 0.00 0.00 21 1002.7
20260509213008 19 0 0.0 0.0 0.00 0.00 0.00 20 1002.7
20260509212507 19 0 0.0 0.0 0.00 0.00 0.00 19 1002.6
20260509212007 20 0 0.0 0.0 0.00 0.00 0.00 19 1002.7
20260509211529 20 0 0.0 0.0 0.00 0.00 0.00 20 1002.7
20260509211008 20 0 0.0 0.0 0.00 0.00 0.00 20 1002.8
20260509210507 19 0 0.0 0.0 0.00 0.00 0.00 21 1002.6
20260509210008 19 0 0.0 0.0 0.00 0.00 0.00 21 1002.7
20260509205508 19 0 0.0 0.0 0.00 0.00 0.00 21 1002.5
20260509205008 19 0 0.0 0.0 0.00 0.00 0.00 20 1002.7
20260509204508 19 0 0.0 0.0 0.00 0.00 0.00 19 1002.7
20260509204007 19 0 0.0 0.0 0.00 0.00 0.00 18 1002.6
20260509203508 19 0 0.0 0.0 0.00 0.00 0.00 18 1002.8
20260509203007 20 0 0.0 0.0 0.00 0.00 0.00 16 1002.9
20260509202507 20 0 0.0 0.0 0.00 0.00 0.00 14 1002.9
20260509202007 20 0 0.0 0.0 0.00 0.00 0.00 14 1002.9
20260509201528 20 0 0.0 0.0 0.00 0.00 0.00 13 1003.0
20260509201007 20 0 0.0 0.0 0.00 0.00 0.00 12 1002.8
20260509200528 20 0 0.0 0.0 0.00 0.00 0.00 11 1003.0
20260509200008 20 0 0.0 0.0 0.00 0.00 0.00 11 1003.0
20260509195507 20 0 0.0 0.0 0.00 0.00 0.00 10 1003.0
20260509195028 20 0 0.0 0.0 0.00 0.00 0.00 10 1003.2
20260509194528 20 0 0.0 0.0 0.00 0.00 0.00 10 1003.1
20260509194007 20 0 0.0 0.0 0.00 0.00 0.00 10 1003.2
20260509193508 20 0 0.0 0.0 0.00 0.00 0.00 10 1003.2
20260509193007 20 0 0.0 0.0 0.00 0.00 0.00 11 1003.3
20260509192507 20 0 0.0 0.0 0.00 0.00 0.00 11 1003.3
20260509192007 20 0 0.0 0.0 0.00 0.00 0.00 10 1003.5
20260509191528 20 0 0.0 0.0 0.00 0.00 0.00 10 1003.4
20260509191008 20 0 0.0 0.0 0.00 0.00 0.00 10 1003.6
20260509190507 20 0 0.0 0.0 0.00 0.00 0.00 10 1003.5
20260509190007 20 0 0.0 0.0 0.00 0.00 0.00 10 1003.6
20260509185528 20 0 0.0 0.0 0.00 0.00 0.00 10 1003.7
20260509185028 20 0 0.0 0.0 0.00 0.00 0.00 10 1003.9
20260509184507 20 0 0.0 0.0 0.00 0.00 0.00 10 1003.7
20260509184007 20 0 0.0 0.0 0.00 0.00 0.00 10 1003.9
20260509183507 20 0 0.0 0.0 0.00 0.00 0.00 10 1004.0
20260509183007 20 0 0.0 0.0 0.00 0.00 0.00 10 1004.0
20260509182508 20 0 0.0 0.0 0.00 0.00 0.00 10 1004.3
20260509182007 20 0 0.0 0.0 0.00 0.00 0.00 10 1004.3
20260509181507 20 0 0.0 0.0 0.00 0.00 0.00 10 1004.4
20260509181007 20 0 0.0 0.0 0.00 0.00 0.00 10 1004.7
20260509180508 20 0 0.0 0.0 0.00 0.00 0.00 10 1004.8
20260509180029 20 0 0.0 0.0 0.00 0.00 0.00 10 1004.5
20260509175507 20 0 0.0 0.0 0.00 0.00 0.00 10 1004.6
20260509175007 20 0 0.0 0.0 0.00 0.00 0.00 10 1004.9
20260509174507 20 0 0.0 0.0 0.00 0.00 0.00 10 1004.9
20260509174008 20 0 0.0 0.0 0.00 0.00 0.00 10 1005.0
20260509173507 20 0 0.0 0.0 0.00 0.00 0.00 10 1005.0
20260509173007 20 0 0.0 0.0 0.00 0.00 0.00 10 1005.0
20260509172507 20 0 0.0 0.0 0.00 0.00 0.00 10 1004.8
20260509172007 20 0 0.0 0.0 0.00 0.00 0.00 10 1004.8
20260509171509 20 0 0.0 0.0 0.00 0.00 0.00 10 1005.0
20260509171028 20 0 0.0 0.0 0.00 0.00 0.00 10 1005.3
20260509170507 20 0 0.0 0.0 0.00 0.00 0.00 10 1005.4
20260509170008 20 0 0.0 0.0 0.00 0.00 0.00 10 1005.4
20260509165507 20 0 0.0 0.0 0.00 0.00 0.00 10 1005.7
20260509165007 20 0 0.0 0.0 0.00 0.00 0.00 10 1005.6
20260509164508 20 0 0.0 0.0 0.00 0.00 0.00 10 1005.7
20260509164028 20 0 0.0 0.0 0.00 0.00 0.00 10 1005.9
20260509163507 20 0 0.0 0.0 0.00 0.00 0.00 10 1006.0
20260509163007 20 0 0.0 0.0 0.00 0.00 0.00 10 1006.0
20260509162507 20 0 0.0 0.0 0.00 0.00 0.00 10 1006.1
20260509162007 20 0 0.0 0.0 0.00 0.00 0.00 10 1006.4
20260509161528 20 0 0.0 0.0 0.00 0.00 0.00 11 1006.2
20260509161008 20 0 0.0 0.0 0.00 0.00 0.00 12 1006.3
20260509160507 19 0 0.0 0.0 0.00 0.00 0.00 11 1006.5
20260509160007 19 0 0.0 0.0 0.00 0.00 0.00 10 1006.4
20260509155507 20 0 0.0 0.0 0.00 0.00 0.00 11 1006.6
20260509155007 20 0 0.0 0.0 0.00 0.00 0.00 14 1006.6
20260509154529 19 0 0.0 0.0 0.00 0.00 0.00 13 1006.7
20260509154007 19 0 0.0 0.0 0.00 0.00 0.00 14 1006.8
20260509153507 18 0 0.0 0.0 0.00 0.00 0.00 15 1007.0
20260509153007 18 0 0.0 0.0 0.00 0.00 0.00 15 1007.2
20260509152507 18 0 0.0 0.0 0.00 0.00 0.00 18 1007.2
20260509152007 18 0 0.0 0.0 0.00 0.00 0.00 18 1007.3
20260509151507 18 0 0.0 0.0 0.00 0.00 0.00 19 1007.4
20260509151007 18 0 0.0 0.0 0.00 0.00 0.00 19 1007.4
20260509150507 17 0 0.0 0.0 0.00 0.00 0.00 19 1007.6
20260509150007 17 0 0.0 0.0 0.00 0.00 0.00 19 1007.5
20260509145528 17 0 0.0 0.0 0.00 0.00 0.00 18 1007.7
20260509145029 17 0 0.0 0.0 0.00 0.00 0.00 21 1007.5
20260509144507 17 0 0.0 0.0 0.00 0.00 0.00 24 1007.6
20260509144007 17 0 0.0 0.0 0.00 0.00 0.00 24 1007.6
20260509143507 17 0 0.0 0.0 0.00 0.00 0.00 25 1007.6
20260509143007 16 0 0.0 0.0 0.00 0.00 0.00 27 1007.7
20260509142507 16 0 0.0 0.0 0.00 0.00 0.00 27 1007.8
20260509142007 16 0 0.0 0.0 0.00 0.00 0.00 27 1007.7
20260509141528 16 0 0.0 0.0 0.00 0.00 0.00 28 1008.0
20260509141007 15 0 0.0 0.0 0.00 0.00 0.00 28 1007.9
20260509140508 15 0 0.0 0.0 0.00 0.00 0.00 31 1008.0
20260509140008 15 0 0.0 0.0 0.00 0.00 0.00 32 1008.1
20260509135507 15 0 0.0 0.0 0.00 0.00 0.00 32 1008.1
20260509135007 14 0 0.0 0.0 0.00 0.00 0.00 35 1008.1
20260509134507 13 0 0.0 0.0 0.00 0.00 0.00 35 1008.1
20260509134007 13 0 0.0 0.0 0.00 0.00 0.00 36 1008.3
20260509133507 13 0 0.0 0.0 0.00 0.00 0.00 37 1008.3
20260509133028 12 0 0.0 0.0 0.00 0.00 0.00 40 1008.4
20260509132528 12 0 0.0 0.0 0.00 0.00 0.00 41 1008.4
20260509132007 11 0 0.0 0.0 0.00 0.00 0.00 42 1008.5
20260509131507 11 0 0.0 0.0 0.00 0.00 0.00 43 1008.6
20260509131007 10 0 0.0 0.0 0.00 0.00 0.00 44 1008.6
20260509130507 10 0 0.0 0.0 0.00 0.00 0.00 45 1008.7
20260509130007 10 0 0.0 0.0 0.00 0.00 0.00 46 1008.8
20260509125507 9 0 0.0 0.0 0.00 0.00 0.00 48 1008.9
20260509125007 9 0 0.0 0.0 0.00 0.00 0.00 49 1008.9
20260509124528 8 0 0.0 0.0 0.00 0.00 0.00 51 1008.8
20260509124007 8 0 0.0 0.0 0.00 0.00 0.00 51 1008.7
20260509123507 8 0 0.0 0.0 0.00 0.00 0.00 53 1008.8
20260509123007 7 0 0.0 0.0 0.00 0.00 0.00 54 1008.8
20260509122508 7 0 0.0 0.0 0.00 0.00 0.00 55 1008.9
20260509122007 7 0 0.0 0.0 0.00 0.00 0.00 56 1008.9
20260509121507 6 0 0.0 0.0 0.00 0.00 0.00 56 1009.0
20260509121029 6 0 0.0 0.0 0.00 0.00 0.00 57 1009.0
20260509120507 6 0 0.0 0.0 0.00 0.00 0.00 58 1008.9
20260509120007 6 0 0.0 0.0 0.00 0.00 0.00 58 1008.9
20260509115508 6 0 0.0 0.0 0.00 0.00 0.00 59 1008.9
20260509115028 5 0 0.0 0.0 0.00 0.00 0.00 60 1009.0
20260509114508 5 0 0.0 0.0 0.00 0.00 0.00 61 1008.8
20260509114007 5 0 0.0 0.0 0.00 0.00 0.00 62 1008.8
20260509113508 5 0 0.0 0.0 0.00 0.00 0.00 63 1008.8
20260509113007 5 0 0.0 0.0 0.00 0.00 0.00 64 1008.8
20260509112508 5 0 0.0 0.0 0.00 0.00 0.00 65 1008.9
20260509112007 5 0 0.0 0.0 0.00 0.00 0.00 65 1008.7
20260509111528 5 0 0.0 0.0 0.00 0.00 0.00 66 1008.8
20260509111007 4 0 0.0 0.0 0.00 0.00 0.00 66 1008.9
20260509110507 4 0 0.0 0.0 0.00 0.00 0.00 66 1008.6
20260509110008 4 0 0.0 0.0 0.00 0.00 0.00 67 1008.7
20260509105508 4 0 0.0 0.0 0.00 0.00 0.00 67 1008.7
20260509105008 4 0 0.0 0.0 0.00 0.00 0.00 68 1008.7
20260509104508 3 0 0.0 0.0 0.00 0.00 0.00 68 1008.4
20260509104008 3 0 0.0 0.0 0.00 0.00 0.00 68 1008.4
20260509103507 3 0 0.0 0.0 0.00 0.00 0.00 69 1008.4
20260509103007 3 0 0.0 0.0 0.00 0.00 0.00 69 1008.5
20260509102507 3 0 0.0 0.0 0.00 0.00 0.00 68 1008.5
20260509102007 3 0 0.0 0.0 0.00 0.00 0.00 68 1008.5
20260509101507 3 0 0.0 0.0 0.00 0.00 0.00 67 1008.5
20260509101007 2 0 0.0 0.0 0.00 0.00 0.00 66 1008.5
20260509100528 2 0 0.0 0.0 0.00 0.00 0.00 66 1008.6
20260509100028 2 0 0.0 0.0 0.00 0.00 0.00 66 1008.5
20260509095508 2 0 0.0 0.0 0.00 0.00 0.00 65 1008.5
20260509095007 3 0 0.0 0.0 0.00 0.00 0.00 65 1008.4
20260509094507 3 0 0.0 0.0 0.00 0.00 0.00 64 1008.5
20260509094007 3 0 0.0 0.0 0.00 0.00 0.00 64 1008.5
20260509093507 3 0 0.0 0.0 0.00 0.00 0.00 64 1008.4
20260509093007 3 0 0.0 0.0 0.00 0.00 0.00 63 1008.5
20260509092507 3 0 0.0 0.0 0.00 0.00 0.00 63 1008.5
20260509092007 3 0 0.0 0.0 0.00 0.00 0.00 63 1008.5
20260509091528 3 0 0.0 0.0 0.00 0.00 0.00 62 1008.3
20260509091028 3 0 0.0 0.0 0.00 0.00 0.00 62 1008.4
20260509090507 3 0 0.0 0.0 0.00 0.00 0.00 62 1008.3
20260509090008 3 0 0.0 0.0 0.00 0.00 0.00 62 1008.4
20260509085528 3 0 0.0 0.0 0.00 0.00 0.00 61 1008.5
20260509085007 3 0 0.0 0.0 0.00 0.00 0.00 61 1008.4
20260509084507 3 0 0.0 0.0 0.00 0.00 0.00 61 1008.3
20260509084028 3 0 0.0 0.0 0.00 0.00 0.00 60 1008.4
20260509083507 3 0 0.0 0.0 0.00 0.00 0.00 60 1008.4
20260509083028 3 0 0.0 0.0 0.00 0.00 0.00 60 1008.4
20260509082528 4 0 0.0 0.0 0.00 0.00 0.00 60 1008.4
20260509082007 4 0 0.0 0.0 0.00 0.00 0.00 59 1008.5
20260509081528 4 0 0.0 0.0 0.00 0.00 0.00 59 1008.4
20260509081007 4 0 0.0 0.0 0.00 0.00 0.00 59 1008.4
20260509080507 4 0 0.0 0.0 0.00 0.00 0.00 58 1008.5
20260509080008 4 0 0.0 0.0 0.00 0.00 0.00 58 1008.7
20260509075507 4 0 0.0 0.0 0.00 0.00 0.00 58 1008.7
20260509075007 4 0 0.0 0.0 0.00 0.00 0.00 57 1008.6
20260509074507 4 0 0.0 0.0 0.00 0.00 0.00 57 1008.6
20260509074028 4 0 0.0 0.0 0.00 0.00 0.00 57 1008.6
20260509073508 5 0 0.0 0.0 0.00 0.00 0.00 56 1008.7
20260509073007 5 0 0.0 0.0 0.00 0.00 0.00 56 1008.6